Regional Weather Roundup
Issued by NWS Northern Indiana

Home | Current Version | Previous Version | Text Only | Print | Product List | Glossary Off
Versions: 1 2 3 4 5 6 7 8 9 10 11 12 13 14 15 16 17 18 19 20 21 22 23 24 25 26 27 28 29 30 31 32 33 34 35 36 37 38 39 40 41 42 43 44 45 46 47 48 49 50

000
ASUS43 KIWX 280900
RWRIWX

KIWX WEATHER ROUNDUP
NATIONAL WEATHER SERVICE NORTHERN INDIANA
400 AM EST FRI NOV 28 2014

NOTE: "FAIR" INDICATES FEW OR NO CLOUDS BELOW 12,000 FEET WITH NO
SIGNIFICANT WEATHER AND/OR OBSTRUCTIONS TO VISIBILITY.

* THESE STATIONS ARE NOT UNDER NWS QUALITY CONTROL. THEY ALSO MAY NOT
  REPORT WEATHER SUCH AS PRECIPITATION OR FOG.

INZ001>027-281000-
NORTHERN INDIANA

CITY           SKY/WX    TMP DP  RH WIND       PRES   REMARKS
SOUTH BEND     PTCLDY    15  11  83 SW8       30.36R WCI   4
GOSHEN         MOCLDY    16  12  84 CALM      30.34F
ANGOLA*        CLOUDY    21  18  86 W3        30.34S
FORT WAYNE     MOCLDY    20  15  81 CALM      30.37S

$$
INZ028>050-281000-
CENTRAL INDIANA

CITY           SKY/WX    TMP DP  RH WIND       PRES   REMARKS
LAFAYETTE      MOCLDY    18  16  92 SW3       30.40R
KOKOMO*        PTCLDY    21  18  86 W7        30.37R WCI  13
MUNCIE*        CLOUDY    24  16  71 CALM      30.35F
INDIANAPOLIS   CLOUDY    21  18  88 SW10      30.38R WCI  10

$$
MIZ043>046-050>051-056>058-064>065-071>073-077>080-281000-
SOUTHWEST LOWER MICHIGAN

CITY           SKY/WX    TMP DP  RH WIND       PRES   REMARKS
BATTLE CREEK   CLOUDY    21   9  59 CALM      30.33F
BENTON HARBOR  CLOUDY    22  15  75 S6        30.34S WCI  14
COLDWATER*     FLURRIES  23  16  76 CALM      30.33S
HILLSDALE*     CLOUDY    18  15  88 CALM      30.31F
HOLLAND        CLOUDY    20  15  81 SE5       30.33F WCI  13
GRAND RAPIDS   CLOUDY    19  12  74 S3        30.34S
KALAMAZOO      CLOUDY    21  14  74 CALM      30.33F
STURGIS*       MOCLDY    19  18  93 CALM      30.32F
THREE RIVERS*  FLURRIES  21  19  89 CALM      30.33F

$$
OHZ001>008-015>018-024>025-281000-
NORTHWEST OHIO

CITY           SKY/WX    TMP DP  RH WIND       PRES   REMARKS
DEFIANCE       CLOUDY    24  18  77 VRB3      30.37R
FINDLAY        CLOUDY    25  17  72 W8        30.34R WCI  16
TOLEDO EXPRESS PTCLDY    18  10  71 NW6       30.36R WCI  10
TOLEDO METCALF CLEAR     19   9  65 W7        30.37R WCI  10
LIMA           CLOUDY    25  19  78 W9        30.35R WCI  15

$$
AND FOR LAKE MICHIGAN COASTAL AND OPEN LAKE BUOY OBSERVATIONS

STATION/POSITION TEMP    WIND        PRES    VSBY  WAVE
                 AIR SEA DIR/SP/G                  HT/PER
                 (F)     (DEG/KT/KT) (MB)    (MI)  (FT/S)
CALUMET HARBOR    20     220/  4/  6 1027.2R
MICHIGAN CITY     21     160/  6/  8   N/A
SAINT JOSEPH      26     230/  5/  9 1028.1R
SOUTH LAKE BUOY   23 42  270/  4/  8 1028.7F         2/ 6

$$
&&



USA.gov is the U.S. government's official web portal to all federal, state and local government web resources and services.